loading
|
Showing default

OPS 9334 (DATS), 2865

Orbit data source: Space-Track

OPS 9334 (DATS), 2865 is a payload satellite owned by SAMSO (US) that was launched on Sat, 01 Jul 1967 UTC via a TITAN IIIC launch vehicle from the Air Force Eastern Test Range (AFETR). Payloads include a variety of satellites, spacecraft, and rockets equipped with specific instruments for various scientific and technological missions. These include communications satellites like Starlink; space stations such as the ISS; scientific satellites like the Hubble; Earth observation satellites from companies like Planet Labs, Umbra, and HawkEye 360; GPS; miniature CubeSats for education and research; and military/defense satellites.

Next visibility unknown
Loading greatness...
OPS 9334 (DATS) details
Identifier
2865, 1967-066D
Orbit
Active
Last TLE update14 hours ago
Origin
Flag of USSAMSO (US)
ManufacturerPhilco-Ford WDL
MissionNon-operational Defense Communications
Bus & MotorIDCSP, Unknown motor
Mass68 kg wet, 68 kg dry
Launch date (UTC)
1967-07-01 (57 years ago)
Launch vehicle
TITAN IIIC
Launch site
Air Force Eastern Test Range (AFETR)
Object type
Payload
Rocket body
Debris
Shape & HBRPoly, Unknown HBR
Radar Cross Section0.926 m², Medium (>0.1 m² and < 1m²)

Expand to show TLE details & history

TLE from 14 hours ago
0 OPS 9334 (DATS)
1 02865U 67066D   24279.32443175 -.00000043  00000-0  00000-0 0  9997
2 02865   1.3438 123.3836 0055171 184.8790 172.5404  1.09623779123366
Epoch: 2024-10-05T07:47Z
Definitive object data (Epoch: 2024-10-05T07:47:10.903Z)
Latitude-0.08305°
Longitude-10.42033°
Altitude33,569.124 km
Speed3.15 km/s
True Right ascension08h 03m 25s
True Declination0° 04' 59"
Sunlit
Object was in daylight at TLE epoch
Predictive object data (real-time)
Latitude-0.96048°
Longitude-141.44994°
Altitude33,188.106 km
Speed3.181 km/s
Apparent Right ascension23h 43m 46s
Apparent Declination-6° 27' 20"
Sunlit
Object is in daylight
Predictive observer data (real-time)
Local Sidereal Time15:41:12
Azimuth74.397° E
Elevation-27.425°
Doppler factor1
Orbital elements
Apogee33,573.431 km
Perigee33,135.016 km
Semi-major axis39,732.361 km
Eccentricity0.0055171
Inclination1.3438°
RAAN123.3836°
Arg. of periapsis184.879°
True anomaly172.62192°
Mean anomaly172.5404°
Eccentric anomaly172.58122°
Mean motion0.27405 °/min
BSTARUnknown
Period1313.64 mins
No data available

OPS 9334 (DATS) Visibility forecast

Observer location: 39.9160978°, -105.1181434

OPS 9334 (DATS) is not visible in the next 10 days
Span
Click to sort rows by Start time (UTC) header in descending order
Start Az.
Max El. time (UTC)
Max El. Az.
Max El.
End time (UTC)
End Az.